EW9559 Weather Reports


time (UTC)temp
C
wind
direction
speed
KPH
gust
KPH
rain 1hr
cm
rain 24hr
cm
rain mn
cm
humidity
%
barometer
mb
20260508130030 12 277 1.6 12.9 0.00 0.00 0.00 64 1020.7
20260508123032 12 279 0.0 8.0 0.00 0.00 0.00 62 1020.6
20260508121526 12 271 0.0 6.4 0.00 0.00 0.00 61 1020.5
20260508114645 12 270 0.0 9.7 0.00 0.00 0.00 60 1020.3
20260508113031 12 275 0.0 3.2 0.00 0.00 0.00 58 1020.3
20260508111605 13 251 0.0 8.0 0.00 0.00 0.00 54 1020.2
20260508110104 13 253 0.0 6.4 0.00 0.00 0.00 54 1020.1
20260508104644 12 257 0.0 6.4 0.00 0.00 0.00 56 1020.1
20260508101542 11 223 0.0 6.4 0.00 0.00 0.00 63 1020.1
20260508100103 10 281 0.0 3.2 0.00 0.00 0.00 63 1020.1
20260508094532 10 247 0.0 3.2 0.00 0.00 0.00 63 1020.1
20260508093032 11 247 0.0 1.6 0.00 0.00 0.00 59 1020.0
20260508091607 12 247 0.0 1.6 0.00 0.00 0.00 56 1019.9
20260508090031 12 253 0.0 3.2 0.00 0.00 0.00 53 1019.9
20260508084605 13 260 0.0 3.2 0.00 0.00 0.00 52 1019.9
20260508083030 13 273 0.0 3.2 0.00 0.00 0.00 50 1019.9
20260508081529 13 281 0.0 9.7 0.00 0.00 0.00 49 1020.0
20260508080106 13 277 0.0 9.7 0.00 0.00 0.00 48 1020.0
20260508074528 13 268 0.0 9.7 0.00 0.00 0.00 47 1020.0
20260508073033 14 252 0.0 6.4 0.00 0.00 0.00 45 1020.1
20260508071531 14 253 1.6 8.0 0.00 0.00 0.00 45 1020.0
20260508070030 14 271 0.0 9.7 0.00 0.00 0.00 44 1020.0
20260508064531 14 269 0.0 6.4 0.00 0.00 0.00 47 1020.0
20260508063030 13 262 0.0 11.3 0.00 0.00 0.00 49 1020.0
20260508061603 13 255 0.0 6.4 0.00 0.00 0.00 50 1020.0
20260508060029 13 259 0.0 4.8 0.00 0.00 0.00 51 1020.1
20260508054531 12 263 0.0 4.8 0.00 0.00 0.00 54 1020.0
20260508053030 12 247 0.0 1.6 0.00 0.00 0.00 53 1020.1
20260508051529 13 247 0.0 4.8 0.00 0.00 0.00 51 1020.1
20260508044531 14 270 0.0 6.4 0.00 0.00 0.00 46 1019.9
20260508043038 15 263 0.0 6.4 0.00 0.00 0.00 45 1019.9
20260508041527 15 252 0.0 6.4 0.00 0.00 0.00 44 1019.9
20260508040105 15 253 0.0 4.8 0.00 0.00 0.00 44 1019.6
20260508034533 14 272 0.0 4.8 0.00 0.00 0.00 44 1019.6
20260508033030 14 261 0.0 3.2 0.00 0.00 0.00 41 1019.4
20260508031607 15 262 0.0 3.2 0.00 0.00 0.00 37 1019.4
20260508030032 16 272 0.0 3.2 0.00 0.00 0.00 33 1019.4
20260508024603 16 266 0.0 4.8 0.00 0.00 0.00 31 1019.4
20260508021605 18 265 0.0 9.7 0.00 0.00 0.00 27 1019.2
20260508020028 18 271 0.0 8.0 0.00 0.00 0.00 26 1019.1
20260508014605 19 275 0.0 6.4 0.00 0.00 0.00 25 1019.0
20260508013030 20 266 0.0 6.4 0.00 0.00 0.00 25 1019.1
20260508011606 20 267 0.0 6.4 0.00 0.00 0.00 25 1019.2
20260508010031 20 265 0.0 6.4 0.00 0.00 0.00 24 1019.3
20260508004528 20 269 1.6 12.9 0.00 0.00 0.00 23 1019.2
20260508003029 20 270 0.0 9.7 0.00 0.00 0.00 23 1019.1
20260508001529 20 263 1.6 12.9 0.00 0.00 0.00 21 1019.2
20260508000032 21 274 1.6 12.9 0.00 0.00 0.00 22 1019.1
20260507234530 21 271 0.0 9.7 0.00 0.00 0.00 22 1019.1
20260507233027 21 264 0.0 11.3 0.00 0.00 0.00 23 1019.2
20260507230029 21 271 1.6 11.3 0.00 0.00 0.00 26 1019.5
20260507224528 21 275 1.6 12.9 0.00 0.00 0.00 27 1019.6
20260507223025 21 284 0.0 9.7 0.00 0.00 0.00 27 1019.6
20260507221645 21 273 0.0 11.3 0.00 0.00 0.00 29 1019.9
20260507220033 20 265 1.6 9.7 0.00 0.00 0.00 31 1020.0
20260507214530 20 255 1.6 12.9 0.00 0.00 0.00 32 1020.1
20260507213029 20 254 1.6 11.3 0.00 0.00 0.00 37 1020.1
20260507211541 20 252 0.0 9.7 0.00 0.00 0.00 40 1020.2
20260507210032 20 263 1.6 12.9 0.00 0.00 0.00 42 1020.2
20260507204604 19 273 1.6 11.3 0.00 0.00 0.00 43 1020.3
20260507203032 19 276 1.6 11.3 0.00 0.00 0.00 43 1020.3
20260507200030 18 274 1.6 14.5 0.00 0.00 0.00 45 1020.7
20260507191529 17 277 1.6 12.9 0.00 0.00 0.00 51 1021.1
20260507184529 16 253 3.2 19.3 0.00 0.00 0.00 54 1021.6
20260507183027 16 249 3.2 17.7 0.00 0.00 0.00 55 1021.6
20260507181530 16 247 1.6 14.5 0.00 0.00 0.00 56 1021.6
20260507174532 16 253 1.6 8.0 0.00 0.00 0.00 59 1021.9
20260507173028 15 253 1.6 12.9 0.00 0.00 0.00 61 1022.2
20260507171536 15 254 1.6 12.9 0.00 0.00 0.00 62 1022.5
20260507170028 15 242 1.6 9.7 0.00 0.00 0.00 61 1022.4
20260507164647 15 252 0.0 9.7 0.00 0.00 0.00 63 1022.6
20260507163034 14 263 0.0 6.4 0.00 0.00 0.00 66 1022.7
20260507161532 13 261 1.6 14.5 0.00 0.00 0.00 67 1022.6
20260507160104 13 269 1.6 9.7 0.00 0.00 0.00 70 1022.7
20260507154532 12 268 1.6 9.7 0.00 0.00 0.00 72 1022.7
20260507153032 12 277 0.0 8.0 0.00 0.00 0.00 73 1022.8
20260507151548 12 274 1.6 14.5 0.00 0.00 0.00 74 1022.9
20260507144532 11 271 0.0 6.4 0.00 0.00 0.00 78 1023.0
20260507143031 10 259 1.6 9.7 0.00 0.00 0.00 80 1023.0
20260507141532 10 259 1.6 12.9 0.00 0.00 0.00 80 1022.8
20260507134532 10 255 1.6 9.7 0.00 0.00 0.00 80 1022.5
20260507133028 10 266 1.6 11.3 0.00 0.00 0.00 81 1022.5
20260507131614 10 265 1.6 11.3 0.00 0.00 0.00 81 1022.5